FW0983 Weather Reports


time (UTC)temp
C
wind
direction
speed
KPH
gust
KPH
rain 1hr
cm
rain 24hr
cm
rain mn
cm
humidity
%
barometer
mb
20260504081529 17 182 11.3 20.9 0.00 0.00 0.00 69 1011.1
20260504044528 18 160 14.5 30.6 0.00 0.00 0.00 64 1013.0
20260504043030 18 178 14.5 25.7 0.00 0.00 0.00 64 1013.0
20260504041534 18 184 14.5 22.5 0.00 0.00 0.00 63 1013.1
20260504040030 18 175 12.9 22.5 0.00 0.00 0.00 63 1013.2
20260504034539 18 171 14.5 20.9 0.00 0.00 0.00 62 1013.2
20260504033030 18 155 14.5 22.5 0.00 0.00 0.00 62 1013.2
20260504031528 18 169 11.3 19.3 0.00 0.00 0.00 61 1013.3
20260504030036 18 144 11.3 19.3 0.00 0.00 0.00 60 1013.4
20260504024530 18 150 9.7 17.7 0.00 0.00 0.00 59 1013.4
20260504023027 18 161 11.3 19.3 0.00 0.00 0.00 58 1013.4
20260504021537 19 171 16.1 25.7 0.00 0.00 0.00 58 1013.3
20260504020036 19 182 12.9 19.3 0.00 0.00 0.00 56 1013.2
20260504014527 20 173 12.9 22.5 0.00 0.00 0.00 55 1013.1
20260504013035 20 167 12.9 19.3 0.00 0.00 0.00 54 1013.1
20260504011530 21 164 12.9 24.1 0.00 0.00 0.00 53 1013.0
20260504010027 21 167 17.7 25.7 0.00 0.00 0.00 53 1012.9
20260504004539 21 189 16.1 24.1 0.00 0.00 0.00 52 1013.0
20260504003028 22 171 14.5 27.4 0.00 0.00 0.00 51 1013.0
20260504001535 22 190 17.7 27.4 0.00 0.00 0.00 50 1013.3
20260504000029 22 194 19.3 29.0 0.00 0.00 0.00 50 1013.3
20260503234529 22 205 17.7 27.4 0.00 0.00 0.00 49 1013.3
20260503233029 23 200 14.5 25.7 0.00 0.00 0.00 49 1013.6
20260503231530 23 157 16.1 32.2 0.00 0.00 0.00 49 1013.7
20260503230028 23 190 9.7 33.8 0.00 0.00 0.00 49 1014.0
20260503224528 23 185 14.5 32.2 0.00 0.00 0.00 48 1014.1
20260503223028 23 223 17.7 30.6 0.00 0.00 0.00 48 1014.3
20260503221532 23 190 12.9 29.0 0.00 0.00 0.00 48 1014.4
20260503220034 23 191 20.9 33.8 0.00 0.00 0.00 47 1014.5
20260503214541 23 204 16.1 32.2 0.00 0.00 0.00 48 1014.9
20260503213033 23 202 16.1 30.6 0.00 0.00 0.00 48 1015.2
20260503211528 23 203 16.1 27.4 0.00 0.00 0.00 48 1015.4
20260503210027 22 217 16.1 32.2 0.00 0.00 0.00 48 1015.7
20260503204530 22 175 20.9 32.2 0.00 0.00 0.00 49 1015.8
20260503203029 22 203 19.3 33.8 0.00 0.00 0.00 49 1016.2
20260503201534 22 195 14.5 29.0 0.00 0.00 0.00 50 1016.8
20260503200028 22 150 19.3 32.2 0.00 0.00 0.00 50 1017.2
20260503194534 21 201 16.1 33.8 0.00 0.00 0.00 51 1017.4
20260503193030 21 179 19.3 29.0 0.00 0.00 0.00 52 1017.5
20260503191527 21 213 16.1 35.4 0.00 0.00 0.00 53 1017.8
20260503190038 21 273 12.9 30.6 0.00 0.00 0.00 52 1018.2
20260503184530 21 227 16.1 30.6 0.00 0.00 0.00 54 1018.3
20260503183036 20 172 16.1 30.6 0.00 0.00 0.00 55 1018.6
20260503181549 20 188 16.1 30.6 0.00 0.00 0.00 56 1018.8
20260503180041 20 214 16.1 30.6 0.00 0.00 0.00 57 1019.2
20260503174529 19 242 17.7 35.4 0.00 0.00 0.00 58 1019.3
20260503173027 19 175 16.1 30.6 0.00 0.00 0.00 59 1019.6
20260503171530 18 178 19.3 30.6 0.00 0.00 0.00 60 1019.7